Location: Austin
(30.3000°N, 97.7500°W)
Time: 04:16:06
(UTC-06:00)

YAOGAN 1 - Pass Details

Date: 13 November 2024
Orbit: 609 x 611 km, 97.8° (Epoch: 05 December)

Event Time Altitude Azimuth Distance (km) Brightness Sun altitude
Rises 18:16:12 0° 127° (SE) 2,862 5.6 -9.3°
Reaches altitude 10° 18:19:11 10° 104° (ESE) 1,961 4.6 -9.9°
Maximum altitude 18:21:37 15° 69° (ENE) 1,653 4.1 -10.4°
Drops below altitude 10° 18:24:03 10° 34° (NE) 1,967 4.7 -10.9°
Sets 18:27:02 0° 12° (NNE) 2,875 5.7 -11.5°
